This is the latest recevied weather packets stored in our database for station/object IR3AS. If no packets are shown the sender has not sent any weather packets the latest 10 day(s).
| Time | Temp. | Humidity | Pressure | Rain* | Wind** | Luminosity | Snow |
|---|---|---|---|---|---|---|---|
| 1787365214 | 9.44° C | 63% | 857.8 hPa | 0 mm | - | - | - |
| 1787364914 | 9.44° C | 65% | 857.6 hPa | 0 mm | - | - | - |
| 1787364614 | 9.44° C | 71% | 856.1 hPa | 0 mm | - | - | - |
| 1787364314 | 9.44° C | 71% | 855.8 hPa | 0 mm | - | - | - |
| 1787364014 | 10° C | 76% | 856.9 hPa | 0 mm | - | - | - |
| 1787363714 | 9.44° C | 75% | 859.2 hPa | 0 mm | - | - | - |
| 1787363414 | 9.44° C | 74% | 859.7 hPa | 0 mm | - | - | - |
| 1787363114 | 9.44° C | 74% | 860.2 hPa | 0 mm | - | - | - |
| 1787362814 | 9.44° C | 75% | 861.1 hPa | 0 mm | - | - | - |
| 1787362514 | 9.44° C | 76% | 861.7 hPa | 0 mm | - | - | - |
| 1787362214 | 9.44° C | 73% | 861.8 hPa | 0 mm | - | - | - |
| 1787361914 | 9.44° C | 74% | 862.2 hPa | 0 mm | - | - | - |
| 1787361614 | 9.44° C | 75% | 862.4 hPa | 0 mm | - | - | - |
| 1787361314 | 9.44° C | 76% | 862.8 hPa | 0 mm | - | - | - |
| 1787361014 | 9.44° C | 74% | 862.8 hPa | 0 mm | - | - | - |
| 1787360714 | 9.44° C | 74% | 862.4 hPa | 0 mm | - | - | - |
| 1787360414 | 9.44° C | 76% | 862.1 hPa | 0 mm | - | - | - |
| 1787360114 | 9.44° C | 78% | 861.8 hPa | 0 mm | - | - | - |
| 1787359814 | 9.44° C | 79% | 861.6 hPa | 0 mm | - | - | - |
| 1787359514 | 9.44° C | 79% | 862.1 hPa | 0 mm | - | - | - |
| 1787359214 | 9.44° C | 79% | 861.8 hPa | 0 mm | - | - | - |
| 1787358914 | 9.44° C | 79% | 861.6 hPa | 0 mm | - | - | - |
| 1787358614 | 8.89° C | 74% | 860.9 hPa | 0 mm | - | - | - |
| 1787358314 | 8.89° C | 75% | 860.1 hPa | 0 mm | - | - | - |
| 1787358014 | 8.89° C | 76% | 859.5 hPa | 0 mm | - | - | - |
* Rain latest hour (hover to see other rain measurements)
** Current wind speed in m/s (hover to see current wind gust speed)